Location: Long Island Community Building
(39.9491°N, 99.5338°W)
Time: 13:57:39
(UTC+00:00)

Cosmos 371 Rocket - Pass Details

Date: 06 December 2019
Orbit: 684 x 699 km, 74.0° (Epoch: 28 January)

Event Time Altitude Azimuth Distance (km) Brightness Sun altitude
Rises 23:36:36 0° 339° (NNW) 3,089 6.6 -4.9°
Reaches altitude 10° 23:38:55 10° 339° (NNW) 2,168 5.8 -5.3°
Maximum altitude 23:43:49 81° 253° (WSW) 713 3.5 -6.1°
Drops below altitude 10° 23:48:41 10° 166° (SSE) 2,153 6.0 -7.0°
Sets 23:50:59 0° 166° (SSE) 3,066 6.7 -7.4°
